Погода в Ставрово

Россия / Владимирская область     56°08′01″N   40°00′52″E
темп.,
°C
ветер,
м/с
пор.,
м/с
влажн.,
%
обл.,
%
осадки,
мм/ч
давл.,
гПа
погр.,
м
4 декабря, сб
сб400:000юз4999100 2.6 998445
03:000зюз51193100 2.9 999633
06:00−3зюз6128881 0.0 1000468
09:00−3зюз71287100 0.1 10021014
12:00−3зюз81386100 0.1 10031030
15:00−4зюз7128797 0.1 1005821
18:00−5зюз6119089 0.0 1008543
21:00−6зюз51091100 0.1 1010445
5 декабря, вс
вс500:00−7з489270 0.0 1012230
03:00−9зюз369639 0.0 101493
06:00−11зюз119864 0.0 101511
09:00−8вюв1196100 0.0 101642
12:00−5в3496100 0.5 1016196
15:00−4вюв2596100 1.3 1017207
18:00−4в359797 0.1 1017136
21:00−4в2397100 0.4 1018115
6 декабря, пн
пн600:00−5всв3497100 0.5 101999
03:00−7всв3597100 0.7 1020112
06:00−6всв3597100 0.1 1020160
09:00−6всв4697100 0.1 1022177
12:00−4в459499 0.1 1022263
15:00−4в469692 0.1 1023246
18:00−6в41096100 0.0 1023234
21:00−4вюв51195100 0.0 1022307
7 декабря, вт
вт700:00−4в51094100 0.0 1022312
03:00−4вюв5119297 0.0 1021391
06:00−4вюв61396100 0.3 1019514
09:00−3вюв71496100 1.2 1017574
12:00−3вюв61497100 3.3 1015597
15:00−2юв61397100 5.4 1012558
18:000юв51197100 0.1 1011461
21:00+1ююв410100100 1.9 1010346
8 декабря, ср
ср800:00+1ю38100100 1.3 1010251
03:00+1ююз37100100 3.4 1011218
06:00+1зюз24100100 0.3 1012243
09:00−2сз4696100 0.5 1014225
12:00−5сз4693100 0.0 1016210
15:00−6ссз4794100 0.2 1017255
18:00−7ссз4894100 0.5 1019294
21:00−8с489399 0.6 1020254